This demonstration page uses our WeatherBlox Daily Observations layout. Learn more.

Left ArrowRight Arrow

39.92423, -83.80882

Hourly Observations for October 8, 2020

Temp ( °F °C ) Dew Point ( °F °C ) Humidity (%) Winds ( mph kmh ) Pressure ( in mb ) Visibility ( mi km ) Precip ( " mm )
12:56 am 00:56 Clear 53 11.7 42 5.6 66 66 N 6 9 30.06 1018 10 16.0934 0 0
1:56 am 01:56 Clear 51 10.6 41 5 69 69 N 3 6 30.06 1018 10 16.0934 0 0
2:56 am 02:56 Clear 47 8.3 43 6.1 86 86 Calm 30.09 1019 10 16.0934 0 0
3:56 am 03:56 Clear 44 6.7 43 6.1 96 96 Calm 30.1 1019 10 16.0934 0.01 0.254
4:56 am 04:56 Clear 42 5.6 42 5.6 100 100 Calm 30.11 1020 10 16.0934 0 0
5:56 am 05:56 Clear 41 5 41 5 100 100 Calm 30.14 1021 10 16.0934 0 0
6:56 am 06:56 Clear 40 4.4 40 4.4 100 100 Calm 30.14 1021 10 16.0934 0 0
7:56 am 07:56 Sunny 40 4.4 40 4.4 100 100 Calm 30.16 1021 10 16.0934 0 0
8:56 am 08:56 Sunny 47 8.3 46 7.8 97 97 Calm 30.17 1022 10 16.0934 0 0
9:56 am 09:56 Sunny 56 13.3 47 8.3 72 72 Calm 30.18 1022 10 16.0934 0 0
10:56 am 10:56 Sunny 63 17.2 42 5.6 47 47 VRB 3 6 30.19 1022 10 16.0934 0 0
11:56 am 11:56 Sunny 66 18.9 40 4.4 39 39 VRB 3 6 30.19 1023 10 16.0934 0 0
12:56 pm 12:56 Sunny 68 20 41 5 38 38 Calm 30.19 1022 10 16.0934 0 0
1:56 pm 13:56 Sunny 70 21.1 41 5 35 35 VRB 3 6 30.17 1022 10 16.0934 0 0
2:56 pm 14:56 Sunny 71 21.7 42 5.6 35 35 VRB 3 6 30.16 1021 10 16.0934 0 0
3:56 pm 15:56 Sunny 71 21.7 43 6.1 36 36 E 3 6 30.14 1021 10 16.0934 0 0
4:56 pm 16:56 Sunny 71 21.7 40 4.4 32 32 N 6 9 30.14 1021 10 16.0934 0 0
5:56 pm 17:56 Sunny 72 22.2 41 5 33 33 WNW 5 7 30.14 1021 10 16.0934 0 0
6:56 pm 18:56 Sunny 64 17.8 43 6.1 46 46 Calm 30.15 1021 10 16.0934 0 0
7:56 pm 19:56 Clear 56 13.3 47 8.3 72 72 Calm 30.16 1021 10 16.0934 0 0
8:56 pm 20:56 Clear with Mist and Fog 51 10.6 47 8.3 86 86 E 3 6 30.17 1022 5 8.0467 0 0
9:56 pm 21:56 Clear 48 8.9 46 7.8 93 93 E 3 6 30.17 1022 10 16.0934 0 0
10:56 pm 22:56 Clear 49 9.4 46 7.8 90 90 E 8 13 30.17 1022 10 16.0934 0 0
11:56 pm 23:56 Clear 47 8.3 45 7.2 93 93 ESE 3 6 30.17 1022 10 16.0934 0 0

Powered by AerisWeather